Regional Weather Roundup
Issued by NWS

Home | Current Version | Previous Version | Graphics & Text | Print | Product List | Glossary On
Versions: 1 2 3 4 5 6 7 8 9 10 11 12 13 14 15 16 17 18 19 20 21 22 23 24 25 26 27 28 29 30 31 32 33 34 35 36 37 38 39 40 41 42 43 44 45 46 47 48 49 50
000
ASUS45 KTFX 221619
RWRMT
MONTANA HOURLY WEATHER ROUNDUP
NATIONAL WEATHER SERVICE GREAT FALLS MT
1019 AM MDT WED OCT 22 2014

NOTE: "FAIR" INDICATES FEW OR NO CLOUDS BELOW 12000 FEET WITH NO
SIGNIFICANT WEATHER AND/OR OBSTRUCTIONS TO VISIBILITY.

* THESE STATIONS ARE NOT UNDER NWS QUALITY CONTROL. THEY DO NOT
   REPORT WEATHER SUCH AS PRECIPITATION OR FOG.

MTZ001>007-043-221700-
WEST OF THE DIVIDE
CITY           SKY/WX    TMP DP  RH WIND       PRES   REMARKS
KALISPELL      PTCLDY    43  37  79 CALM      30.02R
MISSOULA       SUNNY     37  37 100 CALM      30.08S
BUTTE          SUNNY     36  30  79 CALM      30.10S
MULLAN PASS    PTCLDY    36  34  92 VRB6      29.99R WCI  31
* ESSEX        N/A       40  39  96 NE1        N/A
* LINCOLN      N/A       41  34  76 SE3G9      N/A
* POLSON       N/A       40  38  93 S1G6       N/A
* RONAN APT    PTCLDY    43  39  86 N/A        N/A
* SEELEY LAKE  N/A       32  31  96 N/A        N/A
* THOMP F APT  SUNNY     33  31  92 E4G10      N/A
$$

MTZ008-052>055-221700-
SOUTHWEST MONTANA
CITY           SKY/WX    TMP DP  RH WIND       PRES   REMARKS
BOZEMAN        SUNNY     39  34  82 SE6       30.10S WCI  35
DILLON         PTCLDY    37  28  70 SW12      30.12R WCI  29
W YELLOWSTONE  CLOUDY    36  32  85 SW9       30.19R WCI  29
* THREE FORKS  SUNNY     36  18  48 N/A        N/A
* BOULDER HILL N/A       34  27  76 S15        N/A   WCI  24
* MONIDA PASS  N/A       32  32 100 SE13       N/A   WCI  22
* RAYNOLDS PAS N/A       33  19  56 S12        N/A   WCI  24
* WHITEHALL    N/A       40  32  73 S7         N/A   WCI  35
* WISE RIVER   N/A       30  27  89 W4         N/A
$$

MTZ009>010-012-014-046-048-049-054-221700-
EAST SLOPES AND CENTRAL MONTANA
CITY           SKY/WX    TMP DP  RH WIND       PRES   REMARKS
CUT BANK       SUNNY     50  30  46 W24G33    29.88F
GREAT FALLS    SUNNY     48  34  59 SW20G28   29.94F
HELENA         SUNNY     43  34  71 W3        30.05S
MALMSTROM AFB  SUNNY     48  34  59 SW23G30   29.96F
* CONRAD       SUNNY     43  36  76 SE5        N/A
* DEARBORN     N/A       49  30  48 S9G17      N/A
* EAST GLACIER N/A       44  28  53 W36G45     N/A
* MONARCH      N/A       41  22  47 SW20G26    N/A
* PENDROY      N/A       47  27  46 W7         N/A
* ROGERS PASS  N/A       38  31  76 SE18G28    N/A   WCI  28
* SAINT MARY   N/A       44  29  56 S7G20      N/A
* SWEET GRASS  N/A       46  30  54 SW13G20    N/A
* WHITE SULPH  N/A       44  31  60 S13G19     N/A
$$

MTZ011-013-016-021-035-040-045-047-050-051-221700-
NORTH CENTRAL MONTANA
CITY           SKY/WX    TMP DP  RH WIND       PRES   REMARKS
HAVRE          SUNNY     48  37  66 SW21G28   29.90S
LEWISTOWN      SUNNY     48  34  59 W21       29.98R
* CHINOOK      SUNNY     54  36  51 SW22      29.90R
* FORT BENTON  SUNNY     52  36  55 S8G17     29.94F
* CHESTER      N/A       41  34  76 SW3G8      N/A
* DENTON       N/A       50  35  57 SW11       N/A
* GEYSER       N/A       48  29  48 SW18       N/A
* JUDITH GAP   N/A       47  33  58 SW13G20    N/A
* LOMA         N/A       46  36  68 SW6        N/A
$$

MTZ017>020-022>027-061-062-221700-
NORTHEAST MONTANA
CITY           SKY/WX    TMP DP  RH WIND       PRES   REMARKS
GLASGOW        SUNNY     54  37  53 W15G24    29.84S
GLENDIVE       SUNNY     55  37  51 W15       29.91S
JORDAN         SUNNY     54  34  47 W23G29    29.91S
SIDNEY         SUNNY     55  37  51 W18G26    29.86F
WOLF POINT     SUNNY     55  37  51 W22G30    29.84S
* BEAVER HILL  N/A       51  37  59 SW15G20    N/A
* CIRCLE       N/A       52  39  61 W11G18     N/A
* LINDSAY DVD  N/A       50  35  57 W22G30     N/A
* NAVAJO       N/A       50  44  80 W24G29     N/A
$$

MTZ028>042-056>058-221700-
SOUTHCENTRAL AND SOUTHEAST MONTANA
CITY           SKY/WX    TMP DP  RH WIND       PRES   REMARKS
BAKER          SUNNY     52  36  55 W21       29.95S
BILLINGS       SUNNY     48  28  46 SW15      30.02S
LIVINGSTON     SUNNY     48  28  46 W20       30.06S
MILES CITY     SUNNY     54  34  47 W14       29.96R
* LAUREL APT   SUNNY     46  27  48 N/A        N/A
* ROUNDUP APT  SUNNY     52  28  40 N/A        N/A
* ALZADA       N/A       52  33  48 W13        N/A
* HYSHAM       N/A       49  30  48 W10        N/A
* LAME DEER    N/A       45  29  54 W9G14      N/A
* REED POINT   N/A       49  29  46 SE3G9      N/A
* ROSCOE HILL  N/A       50  17  27 S11G16     N/A
$$

REGIONAL REPORTS...DAKOTAS
CITY           SKY/WX    TMP DP  RH WIND       PRES   REMARKS
WILLISTON      PTCLDY    55  41  59 W20G26    29.81S
DICKINSON      PTCLDY    52  39  61 W21       29.86S
BEACH          N/A       52  37  57 W20       29.90F
CROSBY         SUNNY     52  45  77 W22G29    29.75R
TIOGA          SUNNY     54  46  74 W20G29    29.81R
BISMARCK       CLOUDY    57  45  64 W10       29.86R
GRAND FORKS    PTSUNNY   57  45  64 S23G35    29.82R
FARGO          PTSUNNY   57  43  60 S24G41    29.86S
BUFFALO SD     PTCLDY    54  36  51 W18       29.90R
RAPID CITY     CLOUDY    55  36  49 NW12      30.01R
$$

REGIONAL REPORTS...WYOMING/IDAHO/WASHINGTON
CITY           SKY/WX    TMP DP  RH WIND       PRES   REMARKS
GILLETTE       SUNNY     50  28  43 W8        30.07R
SHERIDAN       SUNNY     52  28  40 SE6       30.05S
CODY           PTCLDY   N/A N/A N/A W17G36    30.07R
YELLOWSTONE LA PTCLDY    32  27  82 VRB7      30.21R WCI  25
SALMON         CLOUDY   N/A N/A N/A N/A        N/A   VSB M1/4
MULLAN PASS    PTCLDY    36  34  92 VRB6      29.99S WCI  31
SAND POINT     CLOUDY    48  41  77 N5        29.95S
SPOKANE        PTSUNNY   48  39  71 SE10      29.92R
$$

REGIONAL REPORTS...ALBERTA
CITY           SKY/WX    TMP DP  RH WIND       PRES   REMARKS
CALGARY        SUNNY     45  27  49 S6        29.73F
LETHBRIDGE     SUNNY     52  32  47 SW18G24   29.82F
MEDICINE HAT   SUNNY     48  37  66 SW12      29.82S
EDMONTON       PTSUNNY   41  34  76 SE10      29.66F
WATERTON GATE  N/A       50  28  43 SW18G31    N/A
CARDSTON       N/A       50  32  50 S5         N/A
MILK RIVER     N/A       50  34  54 W6         N/A
$$

REGIONAL REPORTS...SASKATCHEWAN
CITY           SKY/WX    TMP DP  RH WIND       PRES   REMARKS
SWIFT CURRENT  LGT RAIN  46  45  96 W13       29.77S
MOOSE JAW      CLOUDY    50  48  93 NW15G23   29.72R
REGINA         PTSUNNY   52  46  80 NW14      29.69R
VAL MARIE      N/A       48  45  89 W14G21     N/A
ASSINIBOIA     N/A       50  46  86 NW17G24    N/A
CORONACH       N/A       48  45  89 W16G24     N/A

$$




USA.gov is the U.S. government's official web portal to all federal, state and local government web resources and services.